Location: Habighorst
(52.7089°N, 10.2278°E)
Time: 22:57:32
(UTC+00:00)

IRS-1D - Pass Details

Date: 13 January 2026
Orbit: 737 x 810 km, 98.8° (Epoch: 7 February)

Event Time Altitude Azimuth Distance (km) Brightness Sun altitude
Rises 04:48:24 0° 15° (NNE) 3,322 6.9 -22.8°
Reaches altitude 10° 04:50:44 10° 15° (NNE) 2,395 6.1 -22.4°
Maximum altitude 04:56:03 83° 288° (WNW) 823 3.5 -21.6°
Drops below altitude 10° 05:01:22 10° 201° (SSW) 2,393 5.9 -20.8°
Sets 05:03:42 0° 201° (SSW) 3,319 6.7 -20.5°
